Location: Arbon
(43.0005°N, 0.7472°E)
Time: 09:43:43
(UTC+00:00)

SR - Pass Details

Date: 03 December 2020
Orbit: 575 x 880 km, 66.7° (Epoch: 21 January)

Event Time Altitude Azimuth Distance (km) Brightness Sun altitude
Rises 01:40:33 0° 332° (NNW) 3,197 - -58.5°
Reaches altitude 10° 01:42:54 10° 337° (NNW) 2,317 - -58.2°
Maximum altitude 01:48:10 56° 55° (NE) 964 - -57.3°
Drops below altitude 10° 01:53:48 10° 134° (SE) 2,473 - -56.4°
Sets 01:56:23 0° 138° (SE) 3,432 - -56.0°
